Year,Month,Day,Hour,Minute,Value (Times are PST for temperature in C)
2016,04,18,00,00,10.30
2016,04,18,00,01,10.30
2016,04,18,00,02,10.30
2016,04,18,00,03,10.30
2016,04,18,00,04,10.30
2016,04,18,00,05,10.30
2016,04,18,00,06,10.30
2016,04,18,00,07,10.30
2016,04,18,00,08,10.20
2016,04,18,00,09,10.20
2016,04,18,00,10,10.20
2016,04,18,00,11,10.20
2016,04,18,00,12,10.20
2016,04,18,00,13,10.20
2016,04,18,00,14,10.30
2016,04,18,00,15,10.20
2016,04,18,00,16,10.20
2016,04,18,00,17,10.20
2016,04,18,00,18,10.20
2016,04,18,00,19,10.20
2016,04,18,00,20,10.20
2016,04,18,00,21,10.20
2016,04,18,00,22,10.20
2016,04,18,00,23,10.20
2016,04,18,00,24,10.10
2016,04,18,00,25,10.10
2016,04,18,00,26,10.10
2016,04,18,00,27,10.10
2016,04,18,00,28,10.10
2016,04,18,00,29,10.10
2016,04,18,00,30,10.10
2016,04,18,00,31,10.10
2016,04,18,00,32,10.10
2016,04,18,00,33,10.10
2016,04,18,00,34,10.00
2016,04,18,00,35,10.00
2016,04,18,00,36,10.00
2016,04,18,00,37,10.00
2016,04,18,00,38,10.00
2016,04,18,00,39,10.00
2016,04,18,00,40,10.00
2016,04,18,00,41,10.00
2016,04,18,00,42,10.00
2016,04,18,00,43,9.90
2016,04,18,00,44,9.90
2016,04,18,00,45,9.90
2016,04,18,00,46,9.90
2016,04,18,00,47,9.90
2016,04,18,00,48,9.90
2016,04,18,00,49,9.90
2016,04,18,00,50,9.80
2016,04,18,00,51,9.80
2016,04,18,00,52,9.80
2016,04,18,00,53,9.80
2016,04,18,00,54,9.80
2016,04,18,00,55,9.80
2016,04,18,00,56,9.80
2016,04,18,00,57,9.80
2016,04,18,00,58,9.80
2016,04,18,00,59,9.80
2016,04,18,01,00,9.80
2016,04,18,01,01,9.80
2016,04,18,01,02,9.70
2016,04,18,01,03,9.70
2016,04,18,01,04,9.70
2016,04,18,01,05,9.70
2016,04,18,01,06,9.70
2016,04,18,01,07,9.70
2016,04,18,01,08,9.70
2016,04,18,01,09,9.70
2016,04,18,01,10,9.70
2016,04,18,01,11,9.70
2016,04,18,01,12,9.70
2016,04,18,01,13,9.70
2016,04,18,01,14,9.70
2016,04,18,01,15,9.80
2016,04,18,01,16,9.80
2016,04,18,01,17,9.80
2016,04,18,01,18,9.70
2016,04,18,01,19,9.70
2016,04,18,01,20,9.70
2016,04,18,01,21,9.70
2016,04,18,01,22,9.70
2016,04,18,01,23,9.70
2016,04,18,01,24,9.70
2016,04,18,01,25,9.70
2016,04,18,01,26,9.70
2016,04,18,01,27,9.60
2016,04,18,01,28,9.60
2016,04,18,01,29,9.60
2016,04,18,01,30,9.60
2016,04,18,01,31,9.60
2016,04,18,01,32,9.50
2016,04,18,01,33,9.50
2016,04,18,01,34,9.50
2016,04,18,01,35,9.40
2016,04,18,01,36,9.40
2016,04,18,01,37,9.40
2016,04,18,01,38,9.40
2016,04,18,01,39,9.40
2016,04,18,01,40,9.40
2016,04,18,01,41,9.40
2016,04,18,01,42,9.40
2016,04,18,01,43,9.40
2016,04,18,01,44,9.40
2016,04,18,01,45,9.40
2016,04,18,01,46,9.40
2016,04,18,01,47,9.40
2016,04,18,01,48,9.40
2016,04,18,01,49,9.40
2016,04,18,01,50,9.40
2016,04,18,01,51,9.40
2016,04,18,01,52,9.30
2016,04,18,01,53,9.30
2016,04,18,01,54,9.30
2016,04,18,01,55,9.30
2016,04,18,01,56,9.30
2016,04,18,01,57,9.30
2016,04,18,01,58,9.30
2016,04,18,01,59,9.30
2016,04,18,02,00,9.20
2016,04,18,02,01,9.20
2016,04,18,02,02,9.20
2016,04,18,02,03,9.20
2016,04,18,02,04,9.20
2016,04,18,02,05,9.20
2016,04,18,02,06,9.20
2016,04,18,02,07,9.20
2016,04,18,02,08,9.10
2016,04,18,02,09,9.10
2016,04,18,02,10,9.10
2016,04,18,02,11,9.10
2016,04,18,02,12,9.10
2016,04,18,02,13,9.10
2016,04,18,02,14,9.10
2016,04,18,02,15,9.10
2016,04,18,02,16,9.10
2016,04,18,02,17,9.10
2016,04,18,02,18,9.10
2016,04,18,02,19,9.10
2016,04,18,02,20,9.10
2016,04,18,02,21,9.10
2016,04,18,02,22,9.10
2016,04,18,02,23,9.10
2016,04,18,02,24,9.00
2016,04,18,02,25,9.00
2016,04,18,02,26,9.00
2016,04,18,02,27,8.90
2016,04,18,02,28,8.90
2016,04,18,02,29,8.90
2016,04,18,02,30,8.90
2016,04,18,02,31,8.90
2016,04,18,02,32,8.90
2016,04,18,02,33,8.90
2016,04,18,02,34,8.90
2016,04,18,02,35,8.90
2016,04,18,02,36,8.90
2016,04,18,02,37,8.90
2016,04,18,02,38,8.90
2016,04,18,02,39,8.90
2016,04,18,02,40,8.90
2016,04,18,02,41,8.90
2016,04,18,02,42,8.90
2016,04,18,02,43,8.90
2016,04,18,02,44,8.90
2016,04,18,02,45,8.90
2016,04,18,02,46,8.90
2016,04,18,02,47,8.90
2016,04,18,02,48,8.90
2016,04,18,02,49,8.90
2016,04,18,02,50,8.90
2016,04,18,02,51,8.90
2016,04,18,02,52,8.90
2016,04,18,02,53,8.90
2016,04,18,02,54,8.90
2016,04,18,02,55,8.90
2016,04,18,02,56,8.90
2016,04,18,02,57,8.90
2016,04,18,02,58,8.90
2016,04,18,02,59,8.90
2016,04,18,03,00,8.80
2016,04,18,03,01,8.80
2016,04,18,03,02,8.80
2016,04,18,03,03,8.80
2016,04,18,03,04,8.80
2016,04,18,03,05,8.80
2016,04,18,03,06,8.80
2016,04,18,03,07,8.80
2016,04,18,03,08,8.80
2016,04,18,03,09,8.80
2016,04,18,03,10,8.80
2016,04,18,03,11,8.80
2016,04,18,03,12,8.80
2016,04,18,03,13,8.80
2016,04,18,03,14,8.80
2016,04,18,03,15,8.80
2016,04,18,03,16,8.80
2016,04,18,03,17,8.80
2016,04,18,03,18,8.70
2016,04,18,03,19,8.70
2016,04,18,03,20,8.70
2016,04,18,03,21,8.70
2016,04,18,03,22,8.70
2016,04,18,03,23,8.70
2016,04,18,03,24,8.70
2016,04,18,03,25,8.70
2016,04,18,03,26,8.70
2016,04,18,03,27,8.70
2016,04,18,03,28,8.70
2016,04,18,03,29,8.70
2016,04,18,03,30,8.70
2016,04,18,03,31,8.70
2016,04,18,03,32,8.70
2016,04,18,03,33,8.70
2016,04,18,03,34,8.70
2016,04,18,03,35,8.70
2016,04,18,03,36,8.60
2016,04,18,03,37,8.60
2016,04,18,03,38,8.60
2016,04,18,03,39,8.70
2016,04,18,03,40,8.70
2016,04,18,03,41,8.70
2016,04,18,03,42,8.70
2016,04,18,03,43,8.70
2016,04,18,03,44,8.70
2016,04,18,03,45,8.70
2016,04,18,03,46,8.70
2016,04,18,03,47,8.60
2016,04,18,03,48,8.60
2016,04,18,03,49,8.60
2016,04,18,03,50,8.60
2016,04,18,03,51,8.60
2016,04,18,03,52,8.60
2016,04,18,03,53,8.60
2016,04,18,03,54,8.60
2016,04,18,03,55,8.60
2016,04,18,03,56,8.60
2016,04,18,03,57,8.50
2016,04,18,03,58,8.50
2016,04,18,03,59,8.50
2016,04,18,04,00,8.50
2016,04,18,04,01,8.50
2016,04,18,04,02,8.50
2016,04,18,04,03,8.50
2016,04,18,04,04,8.50
2016,04,18,04,05,8.50
2016,04,18,04,06,8.50
2016,04,18,04,07,8.50
2016,04,18,04,08,8.50
2016,04,18,04,09,8.50
2016,04,18,04,10,8.50
2016,04,18,04,11,8.50
2016,04,18,04,12,8.50
2016,04,18,04,13,8.50
2016,04,18,04,14,8.50
2016,04,18,04,15,8.40
2016,04,18,04,16,8.40
2016,04,18,04,17,8.40
2016,04,18,04,18,8.40
2016,04,18,04,19,8.40
2016,04,18,04,20,8.40
2016,04,18,04,21,8.30
2016,04,18,04,22,8.30
2016,04,18,04,23,8.30
2016,04,18,04,24,8.30
2016,04,18,04,25,8.30
2016,04,18,04,26,8.30
2016,04,18,04,27,8.30
2016,04,18,04,28,8.30
2016,04,18,04,29,8.20
2016,04,18,04,30,8.20
2016,04,18,04,31,8.20
2016,04,18,04,32,8.20
2016,04,18,04,33,8.20
2016,04,18,04,34,8.20
2016,04,18,04,35,8.20
2016,04,18,04,36,8.20
2016,04,18,04,37,8.20
2016,04,18,04,38,8.20
2016,04,18,04,39,8.20
2016,04,18,04,40,8.20
2016,04,18,04,41,8.20
2016,04,18,04,42,8.20
2016,04,18,04,43,8.20
2016,04,18,04,44,8.20
2016,04,18,04,45,8.20
2016,04,18,04,46,8.20
2016,04,18,04,47,8.20
2016,04,18,04,48,8.20
2016,04,18,04,49,8.20
2016,04,18,04,50,8.20
2016,04,18,04,51,8.20
2016,04,18,04,52,8.10
2016,04,18,04,53,8.10
2016,04,18,04,54,8.10
2016,04,18,04,55,8.10
2016,04,18,04,56,8.10
2016,04,18,04,57,8.10
2016,04,18,04,58,8.10
2016,04,18,04,59,8.10
2016,04,18,05,00,8.10
2016,04,18,05,01,8.10
2016,04,18,05,02,8.10
2016,04,18,05,03,8.10
2016,04,18,05,04,8.00
2016,04,18,05,05,8.00
2016,04,18,05,06,8.00
2016,04,18,05,07,8.00
2016,04,18,05,08,8.00
2016,04,18,05,09,8.00
2016,04,18,05,10,8.10
2016,04,18,05,11,8.10
2016,04,18,05,12,8.10
2016,04,18,05,13,8.10
2016,04,18,05,14,8.10
2016,04,18,05,15,8.10
2016,04,18,05,16,8.10
2016,04,18,05,17,8.10
2016,04,18,05,18,8.10
2016,04,18,05,19,8.20
2016,04,18,05,20,8.20
2016,04,18,05,21,8.20
2016,04,18,05,22,8.20
2016,04,18,05,23,8.20
2016,04,18,05,24,8.20
2016,04,18,05,25,8.20
2016,04,18,05,26,8.20
2016,04,18,05,27,8.20
2016,04,18,05,28,8.20
2016,04,18,05,29,8.20
2016,04,18,05,30,8.20
2016,04,18,05,31,8.20
2016,04,18,05,32,8.20
2016,04,18,05,33,8.20
2016,04,18,05,34,8.30
2016,04,18,05,35,8.30
2016,04,18,05,36,8.30
2016,04,18,05,37,8.30
2016,04,18,05,38,8.30
2016,04,18,05,39,8.30
2016,04,18,05,40,8.30
2016,04,18,05,41,8.30
2016,04,18,05,42,8.30
2016,04,18,05,43,8.40
2016,04,18,05,44,8.40
2016,04,18,05,45,8.40
2016,04,18,05,46,8.40
2016,04,18,05,47,8.40
2016,04,18,05,48,8.40
2016,04,18,05,49,8.40
2016,04,18,05,50,8.40
2016,04,18,05,51,8.30
2016,04,18,05,52,8.40
2016,04,18,05,53,8.40
2016,04,18,05,54,8.40
2016,04,18,05,55,8.40
2016,04,18,05,56,8.40
2016,04,18,05,57,8.40
2016,04,18,05,58,8.40
2016,04,18,05,59,8.40
2016,04,18,06,00,8.40
2016,04,18,06,01,8.50
2016,04,18,06,02,8.50
2016,04,18,06,03,8.50
2016,04,18,06,04,8.50
2016,04,18,06,05,8.50
2016,04,18,06,06,8.60
2016,04,18,06,07,8.60
2016,04,18,06,08,8.60
2016,04,18,06,09,8.60
2016,04,18,06,10,8.60
2016,04,18,06,11,8.60
2016,04,18,06,12,8.60
2016,04,18,06,13,8.60
2016,04,18,06,14,8.60
2016,04,18,06,15,8.60
2016,04,18,06,16,8.60
2016,04,18,06,17,8.60
2016,04,18,06,18,8.60
2016,04,18,06,19,8.60
2016,04,18,06,20,8.60
2016,04,18,06,21,8.60
2016,04,18,06,22,8.50
2016,04,18,06,23,8.50
2016,04,18,06,24,8.50
2016,04,18,06,25,8.50
2016,04,18,06,26,8.50
2016,04,18,06,27,8.40
2016,04,18,06,28,8.40
2016,04,18,06,29,8.40
2016,04,18,06,30,8.40
2016,04,18,06,31,8.40
2016,04,18,06,32,8.40
2016,04,18,06,33,8.40
2016,04,18,06,34,8.40
2016,04,18,06,35,8.40
2016,04,18,06,36,8.40
2016,04,18,06,37,8.40
2016,04,18,06,38,8.40
2016,04,18,06,39,8.30
2016,04,18,06,40,8.30
2016,04,18,06,41,8.30
2016,04,18,06,42,8.30
2016,04,18,06,43,8.30
2016,04,18,06,44,8.30
2016,04,18,06,45,8.30
2016,04,18,06,46,8.40
2016,04,18,06,47,8.40
2016,04,18,06,48,8.40
2016,04,18,06,49,8.40
2016,04,18,06,50,8.40
2016,04,18,06,51,8.40
2016,04,18,06,52,8.40
2016,04,18,06,53,8.40
2016,04,18,06,54,8.40
2016,04,18,06,55,8.50
2016,04,18,06,56,8.50
2016,04,18,06,57,8.50
2016,04,18,06,58,8.50
2016,04,18,06,59,8.50
2016,04,18,07,00,8.60
2016,04,18,07,01,8.60
2016,04,18,07,02,8.60
2016,04,18,07,03,8.60
2016,04,18,07,04,8.60
2016,04,18,07,05,8.70
2016,04,18,07,06,8.70
2016,04,18,07,07,8.70
2016,04,18,07,08,8.70
2016,04,18,07,09,8.70
2016,04,18,07,10,8.70
2016,04,18,07,11,8.80
2016,04,18,07,12,8.80
2016,04,18,07,13,8.80
2016,04,18,07,14,8.80
2016,04,18,07,15,8.90
2016,04,18,07,16,8.90
2016,04,18,07,17,8.90
2016,04,18,07,18,8.90
2016,04,18,07,19,8.90
2016,04,18,07,20,9.00
2016,04,18,07,21,9.00
2016,04,18,07,22,9.00
2016,04,18,07,23,9.00
2016,04,18,07,24,9.10
2016,04,18,07,25,9.10
2016,04,18,07,26,9.10
2016,04,18,07,27,9.10
2016,04,18,07,28,9.10
2016,04,18,07,29,9.10
2016,04,18,07,30,9.10
2016,04,18,07,31,9.20
2016,04,18,07,32,9.20
2016,04,18,07,33,9.20
2016,04,18,07,34,9.20
2016,04,18,07,35,9.20
2016,04,18,07,36,9.20
2016,04,18,07,37,9.20
2016,04,18,07,38,9.20
2016,04,18,07,39,9.20
2016,04,18,07,40,9.30
2016,04,18,07,41,9.30
2016,04,18,07,42,9.30
2016,04,18,07,43,9.40
2016,04,18,07,44,9.40
2016,04,18,07,45,9.40
2016,04,18,07,46,9.50
2016,04,18,07,47,9.50
2016,04,18,07,48,9.60
2016,04,18,07,49,9.60
2016,04,18,07,50,9.60
2016,04,18,07,51,9.60
2016,04,18,07,52,9.60
2016,04,18,07,53,9.70
2016,04,18,07,54,9.70
2016,04,18,07,55,9.70
2016,04,18,07,56,9.70
2016,04,18,07,57,9.80
2016,04,18,07,58,9.80
2016,04,18,07,59,9.90
2016,04,18,08,00,9.90
2016,04,18,08,01,10.00
2016,04,18,08,02,10.00
2016,04,18,08,03,10.10
2016,04,18,08,04,10.10
2016,04,18,08,05,10.20
2016,04,18,08,06,10.20
2016,04,18,08,07,10.20
2016,04,18,08,08,10.30
2016,04,18,08,09,10.30
2016,04,18,08,10,10.40
2016,04,18,08,11,10.40
2016,04,18,08,12,10.40
2016,04,18,08,13,10.50
2016,04,18,08,14,10.50
2016,04,18,08,15,10.60
2016,04,18,08,16,10.60
2016,04,18,08,17,10.70
2016,04,18,08,18,10.70
2016,04,18,08,19,10.70
2016,04,18,08,20,10.80
2016,04,18,08,21,10.80
2016,04,18,08,22,10.80
2016,04,18,08,23,10.90
2016,04,18,08,24,10.90
2016,04,18,08,25,11.00
2016,04,18,08,26,11.00
2016,04,18,08,27,11.10
2016,04,18,08,28,11.10
2016,04,18,08,29,11.20
2016,04,18,08,30,11.30
2016,04,18,08,31,11.30
2016,04,18,08,32,11.30
2016,04,18,08,33,11.40
2016,04,18,08,34,11.40
2016,04,18,08,35,11.50
2016,04,18,08,36,11.50
2016,04,18,08,37,11.60
2016,04,18,08,38,11.60
2016,04,18,08,39,11.60
2016,04,18,08,40,11.70
2016,04,18,08,41,11.70
2016,04,18,08,42,11.80
2016,04,18,08,43,11.90
2016,04,18,08,44,11.90
2016,04,18,08,45,12.00
2016,04,18,08,46,12.10
2016,04,18,08,47,12.10
2016,04,18,08,48,12.20
2016,04,18,08,49,12.30
2016,04,18,08,50,12.30
2016,04,18,08,51,12.50
2016,04,18,08,52,12.50
2016,04,18,08,53,12.70
2016,04,18,08,54,12.70
2016,04,18,08,55,12.80
2016,04,18,08,56,12.90
2016,04,18,08,57,12.90
2016,04,18,08,58,13.00
2016,04,18,08,59,13.00
2016,04,18,09,00,13.10
2016,04,18,09,01,13.10
2016,04,18,09,02,13.20
2016,04,18,09,03,13.30
2016,04,18,09,04,13.30
2016,04,18,09,05,13.40
2016,04,18,09,06,13.40
2016,04,18,09,07,13.50
2016,04,18,09,08,13.50
2016,04,18,09,09,13.60
2016,04,18,09,10,13.70
2016,04,18,09,11,13.70
2016,04,18,09,12,13.80
2016,04,18,09,13,13.90
2016,04,18,09,14,13.90
2016,04,18,09,15,14.00
2016,04,18,09,16,14.10
2016,04,18,09,17,14.10
2016,04,18,09,18,14.10
2016,04,18,09,19,14.20
2016,04,18,09,20,14.30
2016,04,18,09,21,14.30
2016,04,18,09,22,14.40
2016,04,18,09,23,14.40
2016,04,18,09,24,14.50
2016,04,18,09,25,14.60
2016,04,18,09,26,14.70
2016,04,18,09,27,14.80
2016,04,18,09,28,14.90
2016,04,18,09,29,15.00
2016,04,18,09,30,15.00
2016,04,18,09,31,15.00
2016,04,18,09,32,15.00
2016,04,18,09,33,15.10
2016,04,18,09,34,15.20
2016,04,18,09,35,15.30
2016,04,18,09,36,15.40
2016,04,18,09,37,15.50
2016,04,18,09,38,15.60
2016,04,18,09,39,15.70
2016,04,18,09,40,15.80
2016,04,18,09,41,15.90
2016,04,18,09,42,16.00
2016,04,18,09,43,16.10
2016,04,18,09,44,16.20
2016,04,18,09,45,16.30
2016,04,18,09,46,16.30
2016,04,18,09,47,16.40
2016,04,18,09,48,16.50
2016,04,18,09,49,16.60
2016,04,18,09,50,16.70
2016,04,18,09,51,16.80
2016,04,18,09,52,16.90
2016,04,18,09,53,17.00
2016,04,18,09,54,17.10
2016,04,18,09,55,17.10
2016,04,18,09,56,17.20
2016,04,18,09,57,17.30
2016,04,18,09,58,17.40
2016,04,18,09,59,17.50
2016,04,18,10,00,17.50
2016,04,18,10,01,17.60
2016,04,18,10,02,17.70
2016,04,18,10,03,17.70
2016,04,18,10,04,17.80
2016,04,18,10,05,17.80
2016,04,18,10,06,17.90
2016,04,18,10,07,17.90
2016,04,18,10,08,18.00
2016,04,18,10,09,18.10
2016,04,18,10,10,18.20
2016,04,18,10,11,18.30
2016,04,18,10,12,18.40
2016,04,18,10,13,18.50
2016,04,18,10,14,18.60
2016,04,18,10,15,18.70
2016,04,18,10,16,18.80
2016,04,18,10,17,18.90
2016,04,18,10,18,19.10
2016,04,18,10,19,19.20
2016,04,18,10,20,19.30
2016,04,18,10,21,19.40
2016,04,18,10,22,19.50
2016,04,18,10,23,19.60
2016,04,18,10,24,19.70
2016,04,18,10,25,19.70
2016,04,18,10,26,19.80
2016,04,18,10,27,19.80
2016,04,18,10,28,19.80
2016,04,18,10,29,19.80
2016,04,18,10,30,19.80
2016,04,18,10,31,19.70
2016,04,18,10,32,19.70
2016,04,18,10,33,19.70
2016,04,18,10,34,19.70
2016,04,18,10,35,19.70
2016,04,18,10,36,19.70
2016,04,18,10,37,19.80
2016,04,18,10,38,19.80
2016,04,18,10,39,19.80
2016,04,18,10,40,19.90
2016,04,18,10,41,19.90
2016,04,18,10,42,20.00
2016,04,18,10,43,20.10
2016,04,18,10,44,20.10
2016,04,18,10,45,20.20
2016,04,18,10,46,20.20
2016,04,18,10,47,20.30
2016,04,18,10,48,20.30
2016,04,18,10,49,20.30
2016,04,18,10,50,20.40
2016,04,18,10,51,20.40
2016,04,18,10,52,20.50
2016,04,18,10,53,20.50
2016,04,18,10,54,20.60
2016,04,18,10,55,20.60
2016,04,18,10,56,20.70
2016,04,18,10,57,20.70
2016,04,18,10,58,20.70
2016,04,18,10,59,20.80
2016,04,18,11,00,20.80
2016,04,18,11,01,20.80
2016,04,18,11,02,20.80
2016,04,18,11,03,20.80
2016,04,18,11,04,20.80
2016,04,18,11,05,20.80
2016,04,18,11,06,20.90
2016,04,18,11,07,20.90
2016,04,18,11,08,20.90
2016,04,18,11,09,21.00
2016,04,18,11,10,21.10
2016,04,18,11,11,21.10
2016,04,18,11,12,21.10
2016,04,18,11,13,21.10
2016,04,18,11,14,21.10
2016,04,18,11,15,21.10
2016,04,18,11,16,21.10
2016,04,18,11,17,21.20
2016,04,18,11,18,21.20
2016,04,18,11,19,21.20
2016,04,18,11,20,21.20
2016,04,18,11,21,21.20
2016,04,18,11,22,21.20
2016,04,18,11,23,21.20
2016,04,18,11,24,21.20
2016,04,18,11,25,21.20
2016,04,18,11,26,21.20
2016,04,18,11,27,21.20
2016,04,18,11,28,21.20
2016,04,18,11,29,21.20
2016,04,18,11,30,21.20
2016,04,18,11,31,21.30
2016,04,18,11,32,21.30
2016,04,18,11,33,21.30
2016,04,18,11,34,21.40
2016,04,18,11,35,21.40
2016,04,18,11,36,21.50
2016,04,18,11,37,21.50
2016,04,18,11,38,21.50
2016,04,18,11,39,21.60
2016,04,18,11,40,21.60
2016,04,18,11,41,21.60
2016,04,18,11,42,21.60
2016,04,18,11,43,21.70
2016,04,18,11,44,21.70
2016,04,18,11,45,21.80
2016,04,18,11,46,21.80
2016,04,18,11,47,21.80
2016,04,18,11,48,21.90
2016,04,18,11,49,21.90
2016,04,18,11,50,22.00
2016,04,18,11,51,22.10
2016,04,18,11,52,22.20
2016,04,18,11,53,22.20
2016,04,18,11,54,22.30
2016,04,18,11,55,22.40
2016,04,18,11,56,22.40
2016,04,18,11,57,22.50
2016,04,18,11,58,22.50
2016,04,18,11,59,22.50
2016,04,18,12,00,22.50
2016,04,18,12,01,22.40
2016,04,18,12,02,22.40
2016,04,18,12,03,22.40
2016,04,18,12,04,22.40
2016,04,18,12,05,22.30
2016,04,18,12,06,22.30
2016,04,18,12,07,22.30
2016,04,18,12,08,22.30
2016,04,18,12,09,22.30
2016,04,18,12,10,22.30
2016,04,18,12,11,22.30
2016,04,18,12,12,22.30
2016,04,18,12,13,22.30
2016,04,18,12,14,22.30
2016,04,18,12,15,22.30
2016,04,18,12,16,22.40
2016,04,18,12,17,22.40
2016,04,18,12,18,22.50
2016,04,18,12,19,22.60
2016,04,18,12,20,22.60
2016,04,18,12,21,22.60
2016,04,18,12,22,22.60
2016,04,18,12,23,22.60
2016,04,18,12,24,22.60
2016,04,18,12,25,22.60
2016,04,18,12,26,22.70
2016,04,18,12,27,22.70
2016,04,18,12,28,22.70
2016,04,18,12,29,22.80
2016,04,18,12,30,22.80
2016,04,18,12,31,22.90
2016,04,18,12,32,22.90
2016,04,18,12,33,22.90
2016,04,18,12,34,23.00
2016,04,18,12,35,23.10
2016,04,18,12,36,23.10
2016,04,18,12,37,23.20
2016,04,18,12,38,23.30
2016,04,18,12,39,23.40
2016,04,18,12,40,23.50
2016,04,18,12,41,23.50
2016,04,18,12,42,23.60
2016,04,18,12,43,23.70
2016,04,18,12,44,23.70
2016,04,18,12,45,23.80
2016,04,18,12,46,23.80
2016,04,18,12,47,23.80
2016,04,18,12,48,23.90
2016,04,18,12,49,23.90
2016,04,18,12,50,23.80
2016,04,18,12,51,23.80
2016,04,18,12,52,23.80
2016,04,18,12,53,23.80
2016,04,18,12,54,23.80
2016,04,18,12,55,23.80
2016,04,18,12,56,23.80
2016,04,18,12,57,23.90
2016,04,18,12,58,24.00
2016,04,18,12,59,24.00
2016,04,18,13,00,24.10
2016,04,18,13,01,24.10
2016,04,18,13,02,24.20
2016,04,18,13,03,24.20
2016,04,18,13,04,24.30
2016,04,18,13,05,24.30
2016,04,18,13,06,24.40
2016,04,18,13,07,24.40
2016,04,18,13,08,24.40
2016,04,18,13,09,24.50
2016,04,18,13,10,24.50
2016,04,18,13,11,24.50
2016,04,18,13,12,24.50
2016,04,18,13,13,24.60
2016,04,18,13,14,24.50
2016,04,18,13,15,24.60
2016,04,18,13,16,24.60
2016,04,18,13,17,24.60
2016,04,18,13,18,24.60
2016,04,18,13,19,24.60
2016,04,18,13,20,24.60
2016,04,18,13,21,24.60
2016,04,18,13,22,24.60
2016,04,18,13,23,24.60
2016,04,18,13,24,24.60
2016,04,18,13,25,24.60
2016,04,18,13,26,24.50
2016,04,18,13,27,24.50
2016,04,18,13,28,24.50
2016,04,18,13,29,24.40
2016,04,18,13,30,24.40
2016,04,18,13,31,24.40
2016,04,18,13,32,24.30
2016,04,18,13,33,24.30
2016,04,18,13,34,24.30
2016,04,18,13,35,24.30
2016,04,18,13,36,24.30
2016,04,18,13,37,24.30
2016,04,18,13,38,24.30
2016,04,18,13,39,24.30
2016,04,18,13,40,24.40
2016,04,18,13,41,24.40
2016,04,18,13,42,24.40
2016,04,18,13,43,24.40
2016,04,18,13,44,24.40
2016,04,18,13,45,24.40
2016,04,18,13,46,24.40
2016,04,18,13,47,24.50
2016,04,18,13,48,24.60
2016,04,18,13,49,24.60
2016,04,18,13,50,24.70
2016,04,18,13,51,24.70
2016,04,18,13,52,24.80
2016,04,18,13,53,24.80
2016,04,18,13,54,24.90
2016,04,18,13,55,24.90
2016,04,18,13,56,25.00
2016,04,18,13,57,25.10
2016,04,18,13,58,25.10
2016,04,18,13,59,25.20
2016,04,18,14,00,25.30
2016,04,18,14,01,25.30
2016,04,18,14,02,25.40
2016,04,18,14,03,25.40
2016,04,18,14,04,25.40
2016,04,18,14,05,25.40
2016,04,18,14,06,25.40
2016,04,18,14,07,25.40
2016,04,18,14,08,25.40
2016,04,18,14,09,25.50
2016,04,18,14,10,25.50
2016,04,18,14,11,25.60
2016,04,18,14,12,25.60
2016,04,18,14,13,25.70
2016,04,18,14,14,25.80
2016,04,18,14,15,25.80
2016,04,18,14,16,25.90
2016,04,18,14,17,25.80
2016,04,18,14,18,25.70
2016,04,18,14,19,25.60
2016,04,18,14,20,25.70
2016,04,18,14,21,25.70
2016,04,18,14,22,25.70
2016,04,18,14,23,25.80
2016,04,18,14,24,25.80
2016,04,18,14,25,25.90
2016,04,18,14,26,25.90
2016,04,18,14,27,26.00
2016,04,18,14,28,26.10
2016,04,18,14,29,26.20
2016,04,18,14,30,26.30
2016,04,18,14,31,26.30
2016,04,18,14,32,26.40
2016,04,18,14,33,26.40
2016,04,18,14,34,26.40
2016,04,18,14,35,26.40
2016,04,18,14,36,26.20
2016,04,18,14,37,26.20
2016,04,18,14,38,26.00
2016,04,18,14,39,25.90
2016,04,18,14,40,25.80
2016,04,18,14,41,25.80
2016,04,18,14,42,25.70
2016,04,18,14,43,25.70
2016,04,18,14,44,25.70
2016,04,18,14,45,25.70
2016,04,18,14,46,25.70
2016,04,18,14,47,25.80
2016,04,18,14,48,25.90
2016,04,18,14,49,25.90
2016,04,18,14,50,25.90
2016,04,18,14,51,25.90
2016,04,18,14,52,25.90
2016,04,18,14,53,25.90
2016,04,18,14,54,25.90
2016,04,18,14,55,25.90
2016,04,18,14,56,25.90
2016,04,18,14,57,25.80
2016,04,18,14,58,25.70
2016,04,18,14,59,25.50
2016,04,18,15,00,25.40
2016,04,18,15,01,25.30
2016,04,18,15,02,25.30
2016,04,18,15,03,25.20
2016,04,18,15,04,25.20
2016,04,18,15,05,25.20
2016,04,18,15,06,25.10
2016,04,18,15,07,25.10
2016,04,18,15,08,25.10
2016,04,18,15,09,25.10
2016,04,18,15,10,25.20
2016,04,18,15,11,25.20
2016,04,18,15,12,25.30
2016,04,18,15,13,25.40
2016,04,18,15,14,25.50
2016,04,18,15,15,25.60
2016,04,18,15,16,25.70
2016,04,18,15,17,25.90
2016,04,18,15,18,25.90
2016,04,18,15,19,26.00
2016,04,18,15,20,26.10
2016,04,18,15,21,26.20
2016,04,18,15,22,26.30
2016,04,18,15,23,26.40
2016,04,18,15,24,26.50
2016,04,18,15,25,26.60
2016,04,18,15,26,26.60
2016,04,18,15,27,26.70
2016,04,18,15,28,26.70
2016,04,18,15,29,26.70
2016,04,18,15,30,26.70
2016,04,18,15,31,26.70
2016,04,18,15,32,26.60
2016,04,18,15,33,26.60
2016,04,18,15,34,26.50
2016,04,18,15,35,26.40
2016,04,18,15,36,26.30
2016,04,18,15,37,26.20
2016,04,18,15,38,26.10
2016,04,18,15,39,26.00
2016,04,18,15,40,25.90
2016,04,18,15,41,25.90
2016,04,18,15,42,25.80
2016,04,18,15,43,25.80
2016,04,18,15,44,25.70
2016,04,18,15,45,25.70
2016,04,18,15,46,25.70
2016,04,18,15,47,25.70
2016,04,18,15,48,25.60
2016,04,18,15,49,25.50
2016,04,18,15,50,25.50
2016,04,18,15,51,25.40
2016,04,18,15,52,25.30
2016,04,18,15,53,25.30
2016,04,18,15,54,25.30
2016,04,18,15,55,25.20
2016,04,18,15,56,25.20
2016,04,18,15,57,25.20
2016,04,18,15,58,25.20
2016,04,18,15,59,25.20
2016,04,18,16,00,25.20
2016,04,18,16,01,25.20
2016,04,18,16,02,25.20
2016,04,18,16,03,25.20
2016,04,18,16,04,25.20
2016,04,18,16,05,25.20
2016,04,18,16,06,25.20
2016,04,18,16,07,25.10
2016,04,18,16,08,25.10
2016,04,18,16,09,25.10
2016,04,18,16,10,25.10
2016,04,18,16,11,25.10
2016,04,18,16,12,25.20
2016,04,18,16,13,25.20
2016,04,18,16,14,25.20
2016,04,18,16,15,25.30
2016,04,18,16,16,25.30
2016,04,18,16,17,25.40
2016,04,18,16,18,25.50
2016,04,18,16,19,25.60
2016,04,18,16,20,25.70
2016,04,18,16,21,25.80
2016,04,18,16,22,25.80
2016,04,18,16,23,25.90
2016,04,18,16,24,25.90
2016,04,18,16,25,25.90
2016,04,18,16,26,26.00
2016,04,18,16,27,26.10
2016,04,18,16,28,26.20
2016,04,18,16,29,26.20
2016,04,18,16,30,26.30
2016,04,18,16,31,26.40
2016,04,18,16,32,26.40
2016,04,18,16,33,26.40
2016,04,18,16,34,26.40
2016,04,18,16,35,26.40
2016,04,18,16,36,26.30
2016,04,18,16,37,26.30
2016,04,18,16,38,26.30
2016,04,18,16,39,26.30
2016,04,18,16,40,26.20
2016,04,18,16,41,26.30
2016,04,18,16,42,26.30
2016,04,18,16,43,26.30
2016,04,18,16,44,26.30
2016,04,18,16,45,26.40
2016,04,18,16,46,26.40
2016,04,18,16,47,26.40
2016,04,18,16,48,26.50
2016,04,18,16,49,26.50
2016,04,18,16,50,26.50
2016,04,18,16,51,26.60
2016,04,18,16,52,26.60
2016,04,18,16,53,26.60
2016,04,18,16,54,26.70
2016,04,18,16,55,26.70
2016,04,18,16,56,26.70
2016,04,18,16,57,26.80
2016,04,18,16,58,26.80
2016,04,18,16,59,26.80
2016,04,18,17,00,26.80
2016,04,18,17,01,26.80
2016,04,18,17,02,26.80
2016,04,18,17,03,26.80
2016,04,18,17,04,26.80
2016,04,18,17,05,26.90
2016,04,18,17,06,26.90
2016,04,18,17,07,26.90
2016,04,18,17,08,26.90
2016,04,18,17,09,27.00
2016,04,18,17,10,27.10
2016,04,18,17,11,27.00
2016,04,18,17,12,27.10
2016,04,18,17,13,27.10
2016,04,18,17,14,27.10
2016,04,18,17,15,27.10
2016,04,18,17,16,27.10
2016,04,18,17,17,27.10
2016,04,18,17,18,27.20
2016,04,18,17,19,27.20
2016,04,18,17,20,27.20
2016,04,18,17,21,27.20
2016,04,18,17,22,27.10
2016,04,18,17,23,27.10
2016,04,18,17,24,27.00
2016,04,18,17,25,26.90
2016,04,18,17,26,26.90
2016,04,18,17,27,26.90
2016,04,18,17,28,26.90
2016,04,18,17,29,27.00
2016,04,18,17,30,27.10
2016,04,18,17,31,27.10
2016,04,18,17,32,27.20
2016,04,18,17,33,27.30
2016,04,18,17,34,27.40
2016,04,18,17,35,27.50
2016,04,18,17,36,27.50
2016,04,18,17,37,27.60
2016,04,18,17,38,27.60